GSAT0204 (GALILEO 8)

Last updated on Sun Jun 21 2026 00:02:55 GMT+0000 (Coordinated Universal Time)

1 40545U 15017B 26170.81493794 -.00000095 00000+0 00000+0 0 9996 2 40545 56.7939 341.5423 0001970 245.5009 114.4726 1.70475706 32291
UTC large
Height (km)
Speed (km/s)
/
Latitude / Longitude
Inclination (degrees)
Orbital Period (minutes)
Azimuth
Elevation
Range (km)
Doppler Factor

Next 0 passes for location: London (51.5072 / 0.1276)

No passes found over London.
GSAT0204 (GALILEO 8)